Content
SEND FEEDBACK

Daily
Averages
Monthly
Summary
Canada

ST. JOHN'S, NEWFOUNDLAND


Home > North America > Canada > Newfoundland
Elevation: 459 feet     Latitude: 47 37N     Longitude: 052 44W

WEATHER
 
SELECT A DAY
Number of Records: 202,990;   Date Range: 1/1/95 - 7/28/14
 
SHARE

PRINT THIS DATA

[ ← Previous Day ]
WEATHER ALMANAC - MAY 10, 2013
[ Next Day → ]
[ °C ]   °F
Weather ElementAverageHighLow
Temperature53.2 °F62.6 °F (4:30 pm)44.6 °F (12:30 am)
Dewpoint50.2 °F55.4 °F (3:30 pm)44.6 °F (12:30 am)
Humidity89.6 %100 % (12:30 am)73 % (3:30 pm)
Barometer30.25 in30.33 in (12:30 am)30.14 in (11:30 pm)
Wind Speed18.4 mph27.6 mph (10:30 am)
Wind Gust38 mph (10:30 am)
Weather ElementAverage
Visibility12.7 mi
Wind DirectionSW (227.3 °)

Weather ElementTotal
Precipitation---
Heating Degree Days11.4 (Base 65)
Growing Degree Days3.6 (Base 50)
Averaged from 33 records on May 10, 2013
WEATHER CONDITIONS BREAKOUT
WIND DIRECTION BREAKOUT
WEATHER BY HOUR - MAY 10, 2013
[ °C ]   °F
Local TimeTemperatureDewpointHumidityBarometerVisibilityWind DirectionWind SpeedGust SpeedPrecipitationEventsConditions
12:30 AM44.6 °F44.6 °F100 %30.33 in3.0 miWest (260°)17.3 mphLight Drizzle
1:08 AM44.6 °F44.6 °F100 %30.32 in5.0 miWSW (250°)15.0 mphLight Drizzle
1:30 AM44.6 °F44.6 °F100 %30.32 in2.0 miWest (260°)16.1 mph23.0 mphLight Drizzle
1:46 AM44.6 °F44.6 °F100 %30.32 in0.5 miWest (260°)16.1 mph23.0 mphFogLight Drizzle
2:04 AM44.6 °F44.6 °F100 %30.32 in5.0 miWSW (250°)15.0 mphLight Drizzle
2:18 AM46.4 °F46.4 °F100 %30.31 in10.0 miWSW (240°)13.8 mphLight Drizzle
2:30 AM46.4 °F46.4 °F100 %30.31 in12.0 miWest (260°)13.8 mphLight Drizzle
3:13 AM46.4 °F46.4 °F100 %30.30 in12.0 miWSW (240°)16.1 mphLight Drizzle
3:30 AM48.2 °F48.2 °F100 %30.30 in12.0 miSW (230°)15.0 mphLight Drizzle
3:30 AM48.0 °F48.0 °F99 %30.30 in12.0 miSW (230°)15.0 mphRainLight Drizzle
4:30 AM48.2 °F48.2 °F100 %30.30 in15.0 miSW (220°)11.5 mphOvercast
5:30 AM48.2 °F48.2 °F100 %30.29 in15.0 miSW (230°)11.5 mphOvercast
6:30 AM50.0 °F50.0 °F100 %30.29 in15.0 miSW (220°)15.0 mph20.7 mphOvercast
7:30 AM51.8 °F50.0 °F94 %30.28 in15.0 miSW (230°)17.3 mphMostly Cloudy
8:30 AM53.6 °F51.8 °F94 %30.27 in15.0 miSSW (210°)23.0 mph28.8 mphOvercast
9:30 AM55.4 °F51.8 °F88 %30.25 in15.0 miSSW (210°)25.3 mph35.7 mphOvercast
9:30 AM55.0 °F52.0 °F87 %30.26 in15.0 miSSW (210°)24.2 mphPartly Cloudy
10:30 AM57.2 °F51.8 °F82 %30.26 in15.0 miSW (220°)27.6 mph38.0 mphMostly Cloudy
11:30 AM57.2 °F53.6 °F88 %30.25 in15.0 miSSW (210°)20.7 mph32.2 mphOvercast
12:30 PM59.0 °F53.6 °F82 %30.25 in15.0 miSW (220°)23.0 mph33.4 mphOvercast
1:30 PM60.8 °F53.6 °F77 %30.23 in15.0 miSSW (210°)20.7 mph31.1 mphOvercast
2:30 PM60.8 °F53.6 °F77 %30.23 in15.0 miSW (220°)24.2 mph33.4 mphOvercast
3:30 PM61.0 °F55.0 °F73 %30.21 in15.0 miSW (220°)19.6 mphOvercast
3:30 PM60.8 °F55.4 °F82 %30.21 in15.0 miSSW (210°)20.7 mph29.9 mphOvercast
4:30 PM62.6 °F55.4 °F77 %30.20 in15.0 miSW (220°)21.9 mph27.6 mphMostly Cloudy
5:30 PM60.8 °F53.6 °F77 %30.20 in15.0 miSSW (210°)19.6 mph26.5 mphOvercast
6:30 PM59.0 °F53.6 °F82 %30.19 in15.0 miSSW (210°)20.7 mph27.6 mphMostly Cloudy
7:30 PM57.2 °F51.8 °F82 %30.18 in15.0 miSW (220°)15.0 mph25.3 mphMostly Cloudy
8:30 PM55.4 °F51.8 °F88 %30.18 in15.0 miSW (230°)13.8 mph28.8 mphOvercast
9:30 PM56.0 °F51.0 °F77 %30.18 in15.0 miSW (230°)19.6 mphOvercast
9:30 PM55.4 °F50.0 °F82 %30.18 in15.0 miSW (230°)19.6 mph27.6 mphOvercast
10:30 PM57.2 °F51.8 °F82 %30.16 in15.0 miSSW (210°)20.7 mph26.5 mphOvercast
11:30 PM55.4 °F51.8 °F88 %30.14 in15.0 miSW (220°)18.4 mph28.8 mphMostly Cloudy
Hourly data recorded from CYYT, located miles away from St. John's, Newfoundland







STORIES FROM OUR PARTNERS